Date String (YYYY-MM-DD hh:mm:ss) UTC,Instrument flags,Ambient pressure (hPa),Sample flow (lpm),Bypass flow (lpm),Sample temperature (°C),Ambient temperature (°C),ASC tube jacket temperature (°C),LED temperature (°C),Box temperature (°C),Sample RH (%),Span deviation,Mass concentration (μg/m³),Mass concentration (μg/m³),Mass concentration (μg/m³)
DateTimeUTC,F1_M11,P_M11,Q1_M11,Q2_M11,T1_M11,T2_M11,T3_M11,T4_M11,T5_M11,U1_M11,ZSPAN_M11,X0_M11,X2_M11,X1_M11
2021-12-24 15:00:00,,0810.4,4.99,0.00,22.4,21.7,00.0,31.5,24.0,22.1,0000.0,0004.63,0000.72,0000.27
2021-12-24 15:01:00,,0810.4,5.01,0.00,22.4,21.7,00.0,31.5,24.1,22.0,0000.0,0003.79,0000.71,0000.25
2021-12-24 15:02:00,,0810.4,4.99,0.00,22.4,21.7,00.0,31.5,24.1,21.9,0000.0,0003.87,0000.68,0000.24
2021-12-24 15:03:00,,0810.3,5.00,0.00,22.4,21.7,00.0,31.5,24.0,21.9,0000.0,0003.72,0000.63,0000.22
2021-12-24 15:04:00,,0810.4,5.01,0.00,22.4,21.7,00.0,31.5,24.0,21.9,0000.0,0002.96,0000.61,0000.21
2021-12-24 15:05:00,,0810.5,5.00,0.00,22.4,21.7,00.0,31.5,24.0,21.9,0000.0,0003.65,0000.64,0000.21
2021-12-24 15:06:00,,0810.5,4.99,0.00,22.4,21.7,00.0,31.5,24.0,21.9,0000.0,0003.31,0000.60,0000.21
2021-12-24 15:07:00,,0810.4,5.00,0.00,22.3,21.7,00.0,31.5,24.0,21.9,0000.0,0003.40,0000.60,0000.21
2021-12-24 15:08:00,,0810.3,5.01,0.00,22.3,21.7,00.0,31.5,24.0,21.8,0000.0,0003.10,0000.58,0000.21
2021-12-24 15:09:00,,0810.3,4.98,0.00,22.3,21.6,00.0,31.5,24.0,21.8,0000.0,0002.97,0000.57,0000.22
2021-12-24 15:10:00,,0810.3,5.00,0.00,22.3,21.6,00.0,31.5,24.0,21.8,0000.0,0002.94,0000.55,0000.21
2021-12-24 15:11:00,,0810.4,5.01,0.00,22.3,21.6,00.0,31.4,24.0,21.7,0000.0,0002.92,0000.51,0000.21
2021-12-24 15:12:00,,0810.5,5.00,0.00,22.3,21.6,00.0,31.4,24.0,21.7,0000.0,0002.66,0000.52,0000.21
2021-12-24 15:13:00,,0810.5,4.99,0.00,22.3,21.6,00.0,31.4,24.0,21.7,0000.0,0002.50,0000.57,0000.22
2021-12-24 15:14:00,,0810.5,4.99,0.00,22.3,21.6,00.0,31.4,24.0,21.7,0000.0,0002.60,0000.59,0000.22
2021-12-24 15:15:00,,0810.5,5.01,0.00,22.3,21.6,00.0,31.4,23.9,21.7,0000.0,0002.67,0000.60,0000.23
2021-12-24 15:16:00,,0810.6,4.98,0.00,22.3,21.6,00.0,31.4,23.9,21.6,0000.0,0001.82,0000.55,0000.23
2021-12-24 15:17:00,,0810.6,5.00,0.00,22.3,21.6,00.0,31.4,23.9,21.6,0000.0,0001.63,0000.55,0000.23
2021-12-24 15:18:00,,0810.7,4.99,0.00,22.3,21.6,00.0,31.4,23.9,21.7,0000.0,0001.46,0000.54,0000.23
2021-12-24 15:19:00,,0810.7,5.01,0.00,22.3,21.6,00.0,31.4,24.0,21.8,0000.0,0001.47,0000.55,0000.23
2021-12-24 15:20:00,,0810.7,5.00,0.00,22.3,21.6,00.0,31.4,24.0,21.8,0000.0,0001.49,0000.58,0000.23
2021-12-24 15:21:00,,0810.8,4.99,0.00,22.3,21.6,00.0,31.4,24.0,21.8,0000.0,0001.51,0000.59,0000.23
2021-12-24 15:22:00,,0810.9,5.01,0.00,22.3,21.6,00.0,31.4,24.1,21.8,0000.0,0001.64,0000.63,0000.24
2021-12-24 15:23:00,,0810.9,4.99,0.00,22.3,21.7,00.0,31.4,24.0,21.8,0000.0,0002.07,0000.66,0000.25
2021-12-24 15:24:00,,0810.9,5.01,0.00,22.3,21.7,00.0,31.4,24.1,21.9,0000.0,0001.96,0000.60,0000.24
2021-12-24 15:25:00,,0811.0,4.99,0.00,22.3,21.7,00.0,31.4,24.1,21.9,0000.0,0001.91,0000.59,0000.25
2021-12-24 15:26:00,,0811.0,5.01,0.00,22.4,21.7,00.0,31.4,24.1,22.0,0000.0,0002.39,0000.60,0000.25
2021-12-24 15:27:00,,0811.0,5.01,0.00,22.4,21.8,00.0,31.4,24.1,22.0,0000.0,0002.66,0000.64,0000.25
2021-12-24 15:28:00,,0810.9,5.01,0.00,22.4,21.8,00.0,31.4,24.1,21.9,0000.0,0002.72,0000.67,0000.26
2021-12-24 15:29:00,,0810.9,4.99,0.00,22.4,21.8,00.0,31.4,24.2,21.9,0000.0,0002.95,0000.70,0000.26
2021-12-24 15:30:00,,0810.9,5.01,0.00,22.4,21.9,00.0,31.4,24.2,21.9,0000.0,0002.99,0000.71,0000.26
2021-12-24 15:31:00,,0810.9,5.00,0.00,22.5,21.9,00.0,31.4,24.3,21.9,0000.0,0004.17,0000.75,0000.26
2021-12-24 15:32:00,,0810.9,4.99,0.00,22.5,22.0,00.0,31.4,24.3,21.9,0000.0,0004.89,0000.76,0000.26
2021-12-24 15:33:00,,0810.9,5.02,0.00,22.5,22.0,00.0,31.4,24.3,21.9,0000.0,0004.98,0000.74,0000.26
2021-12-24 15:34:00,,0810.7,4.98,0.00,22.6,22.0,00.0,31.5,24.4,21.9,0000.0,0004.70,0000.73,0000.26
2021-12-24 15:35:00,,0810.6,5.00,0.00,22.6,22.1,00.0,31.5,24.4,22.0,0000.0,0004.79,0000.75,0000.26
2021-12-24 15:36:00,,0810.6,4.99,0.00,22.6,22.1,00.0,31.5,24.5,22.2,0000.0,0004.88,0000.75,0000.26
2021-12-24 15:37:00,,0810.6,5.00,0.00,22.7,22.2,00.0,31.5,24.5,22.2,0000.0,0005.38,0000.77,0000.25
2021-12-24 15:38:00,,0810.8,4.99,0.00,22.7,22.2,00.0,31.5,24.5,22.3,0000.0,0005.41,0000.75,0000.25
2021-12-24 15:39:00,,0810.8,5.01,0.00,22.7,22.2,00.0,31.6,24.5,22.3,0000.0,0005.48,0000.74,0000.24
2021-12-24 15:40:00,,0810.7,5.00,0.00,22.7,22.2,00.0,31.6,24.5,22.4,0000.0,0006.19,0000.74,0000.23
2021-12-24 15:41:00,,0810.6,4.99,0.00,22.8,22.3,00.0,31.6,24.6,22.4,0000.0,0006.32,0000.75,0000.24
2021-12-24 15:42:00,,0810.6,5.00,0.00,22.8,22.3,00.0,31.6,24.6,22.4,0000.0,0005.23,0000.72,0000.23
2021-12-24 15:43:00,,0810.6,5.02,0.00,22.8,22.3,00.0,31.6,24.6,22.4,0000.0,0004.74,0000.73,0000.22
2021-12-24 15:44:00,,0810.7,4.99,0.00,22.8,22.3,00.0,31.7,24.6,22.0,0000.0,0004.94,0000.74,0000.22
2021-12-24 15:45:00,,0810.9,5.00,0.00,22.9,22.4,00.0,31.7,24.7,21.7,0000.0,0005.22,0000.74,0000.22
2021-12-24 15:46:00,,0811.0,5.00,0.00,22.9,22.4,00.0,31.7,24.7,21.6,0000.0,0006.77,0000.74,0000.21
2021-12-24 15:47:00,,0811.0,5.02,0.00,22.9,22.4,00.0,31.7,24.7,21.7,0000.0,0006.77,0000.73,0000.21
2021-12-24 15:48:00,,0811.0,4.99,0.00,22.9,22.4,00.0,31.8,24.8,21.5,0000.0,0005.92,0000.75,0000.20
2021-12-24 15:49:00,,0811.0,4.99,0.00,22.9,22.4,00.0,31.8,24.8,21.5,0000.0,0007.31,0000.77,0000.21
2021-12-24 15:50:00,,0811.0,5.00,0.00,23.0,22.5,00.0,31.8,24.8,21.6,0000.0,0008.24,0000.75,0000.21
2021-12-24 15:51:00,,0811.0,5.01,0.00,23.0,22.5,00.0,31.8,24.8,21.9,0000.0,0008.04,0000.72,0000.21
2021-12-24 15:52:00,,0811.0,4.99,0.00,23.0,22.5,00.0,31.8,24.8,22.1,0000.0,0007.91,0000.69,0000.21
2021-12-24 15:53:00,,0811.0,4.99,0.00,23.0,22.5,00.0,31.9,24.9,22.2,0000.0,0007.94,0000.66,0000.21
2021-12-24 15:54:00,,0811.0,5.00,0.00,23.1,22.5,00.0,31.9,24.9,22.3,0000.0,0008.13,0000.65,0000.22
2021-12-24 15:55:00,,0811.0,5.01,0.00,23.1,22.5,00.0,31.9,24.9,22.3,0000.0,0007.95,0000.67,0000.22
2021-12-24 15:56:00,,0811.0,4.99,0.00,23.1,22.5,00.0,31.9,24.9,22.4,0000.0,0007.67,0000.65,0000.21
2021-12-24 15:57:00,,0811.0,4.98,0.00,23.1,22.6,00.0,31.9,24.9,22.5,0000.0,0006.66,0000.65,0000.21
2021-12-24 15:58:00,,0810.9,5.01,0.00,23.1,22.6,00.0,31.9,24.9,22.8,0000.0,0006.28,0000.66,0000.21
2021-12-24 15:59:00,,0810.9,5.00,0.00,23.1,22.6,00.0,32.0,25.0,22.6,0000.0,0006.34,0000.64,0000.21
